Other Public Products
Issued by NWS Grand Forks, ND

Home | Current Version | Previous Version | Text Only | Print | Product List | Glossary On
Versions: 1 2 3 4 5 6 7 8 9 10 11 12 13 14 15 16 17 18 19 20 21 22 23 24 25 26 27 28 29 30 31 32 33 34 35 36 37 38 39 40 41 42 43 44 45 46 47 48 49 50
000
FPUS83 KFGF 220210
OPUFGF
PRAIRIE TO PINES WEATHER ROUNDUP
NATIONAL WEATHER SERVICE EASTERN NORTH DAKOTA/GRAND FORKS ND
800 PM CST TUE NOV 21 2017

 **SATELLITE DATA USED TO AUGMENT SKY COVER AT AUTOMATED STATIONS**
 *****  WEATHER ACROSS EASTERN NORTH DAKOTA  *****

CITY           SKY/WX    TMP DP  RH WIND       PRES   REMARKS
GRAND FORKS    MOCLDY    16  11  80 W9        30.32S WCI   4
GRND FORKS AFB FAIR      16  10  74 W10       30.31F WCI   4
GRND FORKS NWS   N/A     16 N/A N/A W10         N/A  WCI   3
BUXTON         NOT AVBL
DEVILS LAKE    FAIR      12   7  80 W10       30.30F WCI  -1
FARGO          FAIR      16  10  77 W7        30.34F WCI   6
WAHPETON ARPT  NOT AVBL
$$

 *****  WEATHER ACROSS CENTRAL AND WESTERN NORTH DAKOTA  *****

CITY           SKY/WX    TMP DP  RH WIND       PRES   REMARKS
JAMESTOWN      FAIR       7   4  87 CALM      30.30F
BISMARCK       FAIR      12   6  77 CALM      30.33F
MINOT          FAIR       8   2  76 SW6       30.28F WCI  -2
MINOT AFB      FAIR       3  -1  81 W5        30.27F WCI  -6
GARRISON         N/A      5   2  87 S3        30.29S
WILLISTON      CLOUDY    14   4  64 SE5       30.25F WCI   6
DICKINSON      FAIR      12   1  61 S3        30.21F
HETTINGER      FAIR      11   2  67 CALM      30.25F
$$

 *****  OTHER OBSERVATIONS NORTHEAST NORTH DAKOTA  *****

CITY           SKY/WX    TMP DP  RH WIND       PRES   REMARKS
WALHALLA       FAIR      14   9  79 W9        30.28F WCI   2
LANGDON        FAIR      12  10  92 W8        30.24F WCI   1
CAVALIER       FAIR      14   9  79 W9        30.29F WCI   2
GRAFTON        FAIR      16  10  79 W10       30.32F WCI   3
CANDO          FAIR      10   7  85 W8        30.30S WCI  -1
FORT TOTTEN      N/A     11   6  79 W5        29.95S WCI   3
ROLLA          FAIR       9   3  78 CALM      30.23F
RUGBY          FAIR       5   1  85 W7        30.28F WCI  -7
 ***** THE ABOVE OBSERVATIONS ARE NON NWS ARE NOT QUALITY
        CONTROLLED AND MAY MIS-REPORT RAIN FOR SNOW...
$$

 *****  OTHER OBSERVATIONS SOUTHEAST NORTH DAKOTA *****

CITY           SKY/WX    TMP DP  RH WIND       PRES   REMARKS
COOPERSTOWN    FAIR      12   9  85 W9        30.31F WCI   0
VALLEY CITY    FAIR      10   9  92 W6        30.33F WCI   1
OAKES            N/A      9   3  78 CALM      30.35F
GWINNER          N/A     10   5  79 CALM      30.34F
SHEYENNE NWR     N/A     13   7  76 W2        29.95S
BUFFALO        NOT AVBL
WYNDMERE       NOT AVBL
 ***** THE ABOVE OBSERVATIONS ARE NON NWS ARE NOT QUALITY
       CONTROLLED AND MAY MIS-REPORT RAIN FOR SNOW...
$$

  *****  WEATHER ACROSS NORTHERN MINNESOTA  *****

CITY           SKY/WX    TMP DP  RH WIND       PRES   REMARKS
FLAG ISLAND    FAIR      14   9  79 W9        30.21F WCI   2
WARROAD        FAIR      12   9  85 W5        30.25S WCI   4
ROSEAU         FAIR      16  10  79 W6        30.26S WCI   7
HALLOCK        FAIR      16  10  79 W8        30.29F WCI   5
THF RVR FALLS  FAIR      14  10  84 W7        30.29F WCI   4
HALSTAD        NOT AVBL
FOSSTON        FAIR      10   7  85 W5        30.29S WCI   2
BAUDETTE       FAIR      13   7  77 W7        30.22F WCI   3
WASKISH        FAIR      16  10  79 W9        30.25S WCI   4
CROOKSTON      FAIR      16  10  79 W8        30.33S WCI   5
$$
  *****  WEATHER ACROSS CENTRAL AND WEST MINNESOTA  *****

CITY           SKY/WX    TMP DP  RH WIND       PRES   REMARKS
BEMIDJI        FAIR      12   8  84 W8        30.26S WCI   0
PARK RAPIDS    FAIR      13   7  77 NW5       30.27S WCI   5
WADENA         FAIR      12   9  85 W5        30.30S WCI   4
DETROIT LAKES  FAIR      16  12  86 W6        30.31F WCI   7
MOORHEAD       FAIR      16   9  73 CALM      30.36F
FERGUS FALLS   MOCLDY    14   9  79 NW8       30.38F WCI   3
ELBOW LAKE     FAIR      16  10  77 W9        30.34S WCI   4
MORRIS MN      FAIR      18  10  73 NW8       30.34S WCI   7
STAPLES        CLOUDY    14   9  79 NW8       30.29F WCI   3
WHEATON        FAIR      18   9  68 W7        30.38F WCI   8
$$
  *****  WEATHER ELSEWHERE ACROSS MINNESOTA  *****

CITY           SKY/WX    TMP DP  RH WIND       PRES   REMARKS
DULUTH         FLURRIES  15   8  73 NW12      30.20R WCI   2
INTRNTL FALLS    N/A     14   9  80 NW5       30.21R WCI   6
ELY            CLOUDY    16   9  73 W8G18     30.16R WCI   5
CLOQUET        FLURRIES  16   7  67 NW9       30.23R WCI   4
BRAINERD       CLOUDY    18   8  65 NW12      30.29R WCI   5
HIBBING        CLOUDY    14   8  77 NW12      30.21R WCI   0
ALEXANDRIA     FAIR      17   9  70 NW12      30.30F WCI   4
SAINT CLOUD    FAIR      18  10  71 NW9       30.30R WCI   7
MINNEAPOLIS    FAIR      22  10  60 NW23G29   30.28R WCI   6
$$

  *****  WEATHER ACROSS SOUTH DAKOTA  *****

CITY           SKY/WX    TMP DP  RH WIND       PRES   REMARKS
SIOUX FALLS    FAIR      18   8  65 NW5       30.37S WCI  11
BROOKINGS      FAIR      15   8  73 CALM      30.35S
WATERTOWN      FAIR      16   8  71 NW5       30.32F WCI   9
HURON          FAIR      10   5  80 W7        30.39S WCI  -1
SISSETON         N/A     15   8  73 NW7       30.35F WCI   5
ABERDEEN       NOT AVBL
MITCHELL       FAIR      17   7  64 W6        30.40S WCI   9
PIERRE         FAIR      15   5  64 CALM      30.34F
MOBRIDGE       FAIR      12   3  67 NE3       30.30F
RAPID CITY     FAIR      22  16  78 SW5       30.24F WCI  16
$$

  *****  SOME WEATHER IN NEARBY STATES *****

CITY           SKY/WX    TMP DP  RH WIND       PRES   REMARKS
GLASGOW MT     FAIR      15   2  56 E14       30.13F WCI   0
GREAT FALLS MT FAIR      48  31  51 SW20G31   30.03F
CHEYENNE WY    FAIR      34  33  96 SW15      30.27R WCI  24
SCOTTSBLUFF NE FAIR      31  21  66 CALM      30.25F
OMAHA NE       FAIR      25  11  55 NW9       30.39R WCI  15
DES MOINES IA  FAIR      28  11  48 NW13G21   30.33R WCI  17
DAVENPORT IA   FAIR      26  18  71 NW10      30.25R WCI  16
CHICAGO IL     FAIR      30  15  53 NW15      30.15R WCI  19
EAU CLAIRE WI  FAIR      23  10  57 NW12      30.21R WCI  12
LA CROSSE WI   FAIR      28  13  53 NW13      30.23R WCI  17
$$

  *****  SOME NATIONAL WEATHER *****

CITY           SKY/WX    TMP DP  RH WIND       PRES   REMARKS
LA GUARDIA NY  MOCLDY    52  38  58 S6        30.05S
RALEIGH NC     MOCLDY    56  48  74 SE7       30.06F
ATLANTA GA     FAIR      58  54  86 SE6       30.03S
NEW ORLEANS LA CLOUDY    65  61  87 NE3       30.01R
OKLAHOMA CITY  FAIR      49  24  37 N17G29    30.28R
ALBUQUERQUE NM FAIR      57  18  21 E17       30.31R
SALT LAKE CITY MOCLDY    53  43  68 CALM      30.36R
LOS ANGELES CA FAIR      68  57  68 W3        30.02R
BOISE ID       CLOUDY    53  49  86 SE10      30.25R
SEATTLE WA     CLOUDY    58  56  93 S10       29.85S
$$

*** WEATHER ACROSS MANITOBA...SASKATCHEWAN AND ONTARIO ***
                ***ONTARIO***

CITY           SKY/WX    TMP DP  RH WIND       PRES   REMARKS
GERALDTON      FLURRIES  16  10  79 W12G17    29.93R WCI   3
THUNDER BAY    MOCLDY    19  12  73 W10       30.11R WCI   8
SIOUX LOOKOUT  FLURRIES  16  12  86 W10       30.08S WCI   3
TORONTO        LGT RAIN  41  36  81 W20       29.83R
BIG TROUT LK   FLURRIES  18  12  79 W17G25    29.85R WCI   2
PICKLE LAKE    FLURRIES  14  10  85 W12G20    29.96R WCI   0
DRYDEN         CLOUDY    14  10  85 W10G18    30.12R WCI   1
KENORA         MOCLDY    12   9  85 NW8       30.16F WCI   1
$$
                *** MANITOBA***

CITY           SKY/WX    TMP DP  RH WIND       PRES   REMARKS
BRANDON        PTCLDY     9   3  78 W10       30.24F WCI  -6
DAUPHIN        CLEAR     10   5  79 W13       30.25S WCI  -5
ISLAND LAKE    FLURRIES  14   7  73 NW18G28   30.05R WCI  -3
PILOT MOUND      N/A     12   7  79 W5          N/A  WCI   4
THE PAS        MOCLDY     7   1  78 W9        30.16F WCI  -7
THOMPSON       PTCLDY     3  -2  78 W8        30.07F WCI -10
WINNIPEG       MOCLDY    12   7  79 W8        30.26F WCI   1
LYNN LAKE      CLOUDY     7   5  92 W6        30.02F WCI  -3
CHURCHILL      MOCLDY     9   5  85 NW30G40   29.76F WCI -14
$$
                ***SASKATCHEWAN***

CITY           SKY/WX    TMP DP  RH WIND       PRES   REMARKS
ESTEVAN        PTCLDY     0  -6  78 S2        30.23F
KINDERSLEY     PTCLDY    -4  -9  77 SE7       30.04F WCI -18
LLOYDMINSTER   MOCLDY    -2  -6  84 S9        30.03F WCI -18
PRINCE ALBERT  FLURRIES   1  -4  78 W8        30.20S WCI -12
REGINA         MOCLDY     0  -6  78 SE10      30.18F WCI -17
YORKTON        PTCLDY     3  -2  78 SW9       30.19F WCI -11
N. BATTLEFORD  CLEAR     -4  -9  77 S3        30.15F



USA.gov is the U.S. government's official web portal to all federal, state and local government web resources and services.